Simultaneous Nadir Overpasses (SNOs) Predictions

Prediction of SNOs between NOAA-20 and AQUA Satellite Orbit:

Table of predicted SNOs for the next 14.0 days since TLE Epoch: 10/7/2023
Index Date (NOAA-20) Time (NOAA-20) Lat,Lon (NOAA-20) SZA (NOAA-20 ) Date (AQUA) Time (AQUA) Lat,Lon (AQUA) SZA (AQUA ) Distance(km) Time Diff (sec)
1 10/09/2023 06:57:43 -80.86, 168.41 84.84 10/09/2023 06:58:28 -80.86, 168.52 84.89 1.90 45
2 10/09/2023 07:48:23 80.93, -22.94 94.97 10/09/2023 07:47:48 80.93, -22.89 94.99 0.99 35
3 10/11/2023 20:42:17 80.88, 142.65 96.04 10/11/2023 20:43:16 80.88, 142.62 96.00 0.68 59
4 10/11/2023 21:32:59 -80.94, -48.91 84.12 10/11/2023 21:32:38 -80.94, -48.98 84.10 1.22 21
5 10/14/2023 10:26:54 -80.87, 116.27 83.01 10/14/2023 10:28:05 -80.87, 116.21 83.05 1.11 71
6 10/14/2023 11:17:35 80.93, -75.13 96.82 10/14/2023 11:17:26 80.93, -75.26 96.84 2.39 9
7 10/17/2023 01:02:11 -80.94,-101.22 82.28 10/17/2023 01:02:12 -80.94,-101.30 82.27 1.45 1
8 10/19/2023 14:46:47 80.92,-127.65 98.67 10/19/2023 14:46:56 80.93,-127.63 98.66 0.43 9



Historial Predications of SNOs between NOAA-20 and AQUA
